TimeEDT,TemperatureF,Dew PointF,Humidity,Sea Level PressureIn,VisibilityMPH,Wind Direction,Wind SpeedMPH,Gust SpeedMPH,PrecipitationIn,Events,Conditions,WindDirDegrees,DateUTC
12:53 AM,35.1,32.0,89,30.30,10.0,Calm,Calm,-,N/A,,Overcast,0,2013-03-11 04:53:00
1:53 AM,36.0,33.1,89,30.29,10.0,Calm,Calm,-,N/A,,Overcast,0,2013-03-11 05:53:00
2:53 AM,37.0,34.0,89,30.28,10.0,Calm,Calm,-,N/A,,Overcast,0,2013-03-11 06:53:00
3:53 AM,37.9,35.1,89,30.25,9.0,SE,3.5,-,N/A,,Overcast,130,2013-03-11 07:53:00
4:12 AM,37.4,35.6,93,30.25,10.0,Calm,Calm,-,N/A,,Overcast,0,2013-03-11 08:12:00
4:53 AM,37.9,35.1,89,30.24,9.0,Calm,Calm,-,N/A,,Overcast,0,2013-03-11 08:53:00
5:53 AM,37.9,36.0,93,30.24,5.0,Calm,Calm,-,N/A,,Overcast,0,2013-03-11 09:53:00
6:38 AM,37.4,37.4,100,30.23,2.0,Calm,Calm,-,N/A,,Overcast,0,2013-03-11 10:38:00
6:53 AM,37.9,37.0,97,30.23,1.8,Calm,Calm,-,N/A,,Overcast,0,2013-03-11 10:53:00
7:30 AM,37.4,37.4,100,30.22,0.5,Calm,Calm,-,N/A,Fog,Fog,0,2013-03-11 11:30:00
7:53 AM,37.9,37.9,100,30.23,0.5,Calm,Calm,-,N/A,Fog,Fog,0,2013-03-11 11:53:00
8:07 AM,37.4,37.4,100,30.22,0.5,Calm,Calm,-,N/A,Fog,Fog,0,2013-03-11 12:07:00
8:28 AM,39.2,37.4,93,30.22,1.2,Calm,Calm,-,N/A,,Overcast,0,2013-03-11 12:28:00
8:35 AM,39.2,37.4,93,30.23,1.2,Calm,Calm,-,N/A,,Overcast,0,2013-03-11 12:35:00
8:53 AM,39.0,39.0,100,30.24,1.2,Calm,Calm,-,N/A,,Overcast,0,2013-03-11 12:53:00
9:53 AM,41.0,41.0,100,30.24,2.5,Calm,Calm,-,N/A,,Overcast,0,2013-03-11 13:53:00
10:04 AM,42.8,41.0,93,30.23,4.0,SSE,4.6,-,N/A,,Overcast,150,2013-03-11 14:04:00
10:27 AM,42.8,41.0,93,30.22,7.0,SE,5.8,-,N/A,,Overcast,140,2013-03-11 14:27:00
10:53 AM,44.1,41.0,89,30.22,8.0,South,5.8,-,N/A,,Overcast,170,2013-03-11 14:53:00
11:53 AM,46.9,42.1,83,30.21,10.0,South,4.6,-,N/A,,Overcast,170,2013-03-11 15:53:00
12:38 PM,50.0,42.8,76,30.20,10.0,Variable,6.9,-,N/A,,Overcast,0,2013-03-11 16:38:00
12:53 PM,50.0,42.1,74,30.19,10.0,SSW,6.9,-,N/A,,Mostly Cloudy,200,2013-03-11 16:53:00
1:04 PM,51.8,42.8,71,30.18,10.0,South,6.9,-,N/A,,Partly Cloudy,180,2013-03-11 17:04:00
1:53 PM,54.0,41.0,62,30.17,10.0,South,5.8,-,N/A,,Clear,170,2013-03-11 17:53:00
2:53 PM,55.9,39.9,55,30.13,10.0,South,6.9,-,N/A,,Clear,170,2013-03-11 18:53:00
3:53 PM,57.0,37.9,49,30.11,10.0,Variable,3.5,-,N/A,,Clear,0,2013-03-11 19:53:00
4:53 PM,55.9,43.0,62,30.09,10.0,ESE,5.8,-,N/A,,Clear,110,2013-03-11 20:53:00
5:53 PM,54.0,44.1,69,30.08,10.0,ESE,4.6,-,N/A,,Clear,110,2013-03-11 21:53:00
6:53 PM,53.6,44.6,72,30.07,10.0,SE,8.1,-,N/A,,Clear,130,2013-03-11 22:53:00
7:53 PM,51.1,45.0,80,30.10,10.0,SE,8.1,-,N/A,,Clear,140,2013-03-11 23:53:00
8:50 PM,50.0,44.6,82,30.08,10.0,SE,4.6,-,N/A,,Mostly Cloudy,130,2013-03-12 00:50:00
8:53 PM,50.0,45.0,83,30.08,10.0,SE,3.5,-,N/A,,Mostly Cloudy,130,2013-03-12 00:53:00
9:25 PM,50.0,46.4,87,30.07,10.0,SE,8.1,-,N/A,,Overcast,140,2013-03-12 01:25:00
9:53 PM,50.0,46.9,89,30.07,10.0,SE,3.5,-,N/A,,Overcast,140,2013-03-12 01:53:00
10:53 PM,50.0,46.9,89,30.08,10.0,Calm,Calm,-,N/A,,Overcast,0,2013-03-12 02:53:00
11:20 PM,50.0,46.4,87,30.07,10.0,Calm,Calm,-,N/A,,Overcast,0,2013-03-12 03:20:00
11:53 PM,50.0,46.9,89,30.07,10.0,Calm,Calm,-,N/A,,Mostly Cloudy,0,2013-03-12 03:53:00